Vertical_Velocity
12 -1 2 5 4 3 0 0 3 1 -0 -1 -0 -2 -2 -1 0 21 1 -3 -0 -1 1 1 0 -0 1 2 1 0 -2 0 2 2 1 0 2 1 1 2 1 -0 -0
3 5 4 2 1 3 3 1 1 1 1 -1 3 -2 2 0 16 14 10 -0 3 -1 1 1 0 1 1 0 -0 3 1 1 0 1 1 -1 1 1 0 0 -1 1 2
4 4 3 3 2 1 -3 2 3 4 2 4 4 0 0 -3 -5 -7 2 -2 4 -1 -0 1 1 2 1 1 0 1 2 3 2 3 -3 -3 -1 5 3 -0 1 0 3
4 3 2 3 3 3 4 1 0 1 2 2 2 1 3 4 1 5 6 -1 2 3 0 3 -4 1 -1 0 0 2 3 0 2 -0 2 1 2 -4 0 2 2 -0 -1
1 0 1 2 1 2 2 3 3 2 1 1 -0 1 -1 0 3 -3 9 0 0 0 4 -1 5 3 2 1 0 -0 3 2 1 1 2 2 1 -0 2 4 4 2 1
-1 0 -1 -0 -1 0 1 5 4 3 2 2 -1 -0 -1 0 1 1 -0 1 1 -1 0 -2 3 0 1 -0 3 2 -0 3 1 1 1 2 2 5 2 1 3 1 5
-1 -0 0 2 2 1 2 3 2 2 1 -1 -1 -1 -1 -0 2 1 2 0 0 -4 2 0 0 -3 12 1 5 -1 0 1 2 4 4 1 2 4 3 -1 -1 -2 1
3 2 2 1 2 1 1 2 2 3 2 1 -2 -0 0 -0 1 1 -1 0 -2 -0 1 1 2 1 0 -3 1 6 1 0 0 1 -2 3 1 2 2 2 1 -0 2
1 2 1 0 1 1 1 -0 -0 0 2 1 -1 -0 -1 -1 -1 0 3 -0 0 -1 -1 -1 -1 -1 1 2 1 0 -7 3 2 2 -1 2 0 -1 1 2 2 3 0
1 1 1 1 1 1 2 2 -0 1 1 2 2 2 -0 -0 -0 1 1 0 2 -1 -1 1 1 -2 -1 -1 2 -0 -1 -6 7 2 1 2 2 -0 2 0 4 2 1
2 2 1 2 1 1 2 2 1 3 1 6 4 4 2 0 2 0 1 -2 -1 -1 0 -0 -1 7 -3 -6 -1 3 -2 4 -0 2 3 1 0 2 -1 1 0 3 1
1 0 -0 -0 1 1 1 0 1 -2 -4 -5 3 0 -0 1 0 -2 -3 -1 1 2 1 1 2 -1 -9 9 1 2 -4 4 -5 8 -2 2 2 0 3 1 -0 1 3
2 1 0 -1 -1 -1 1 0 6 -3 -9 -4 -2 -3 -1 2 -1 -0 -1 -0 0 0 2 0 0 2 8 3 9 6 -4 11 -1 1 2 3 3 5 4 4 1 2 2
3 3 -0 1 -1 -1 -2 -0 -3 0 6 -5 -2 -1 9 2 -0 0 1 -1 -3 0 -1 -3 -2 -1 4 1 0 -2 -2 -2 9 9 4 0 -0 0 6 1 4 4 1
3 3 3 3 0 -0 -0 2 -2 -3 -7 -2 4 1 -3 11 2 2 2 1 -2 -0 -1 1 1 3 -2 -1 -1 1 4 3 1 1 -1 -4 6 -0 1 -4 5 2 1
2 1 1 4 4 3 2 4 4 -3 2 -0 2 8 6 14 1 3 -1 -1 -2 1 1 2 3 2 0 4 4 -1 1 6 13 4 -1 1 -1 3 -3 -0 -1 5 -1
-0 2 1 1 3 4 5 4 1 2 1 8 10 9 4 14 3 1 -2 2 -1 2 -0 -0 -1 0 1 -1 -4 -1 -3 -2 4 10 1 0 4 -3 -3 2 -1 5 2
-1 2 2 0 -0 2 3 4 6 2 3 4 9 7 7 2 -2 1 -0 0 -2 2 -2 -3 -1 -1 -3 2 -4 -4 0 -7 -2 0 6 -11 -3 2 -1 -1 -9 -10 3
2 2 1 1 -3 -1 2 4 1 -1 2 9 7 -4 -2 -3 -3 -1 1 -4 8 3 -5 1 -1 -3 -3 -4 1 -1 -1 -3 -4 2 2 18 11 16 1 11 12 4 2
2 -0 0 1 0 3 3 2 3 3 -1 -0 3 1 8 7 5 1 14 -1 -1 -9 -9 9 -3 3 4 1 0 -2 -4 -1 -6 13 21 6 8 10 -6 -4 2 -14 -1
-0 2 2 2 -0 1 2 0 0 2 4 8 1 -0 -2 -1 9 11 6 2 8 4 1 5 -2 -4 -4 -1 4 4 9 3 -2 -4 -12 0 -1 2 -5 -6 -2 -1 -6
4 4 -1 -4 -2 0 4 -3 1 2 3 4 4 3 4 3 -1 1 4 -0 2 13 -0 -2 -5 6 1 -2 0 0 -1 1 2 4 0 -3 1 3 5 3 1 4 4
0 -0 2 3 1 3 2 -5 1 1 1 3 5 2 3 2 1 -0 -2 2 6 2 6 5 10 3 2 1 -0 2 0 -0 2 3 3 1 1 4 7 -3 0 7 1
1 -2 1 0 -1 -1 1 -4 0 0 3 4 6 2 5 9 6 2 1 -1 -3 1 4 -2 2 0 -0 0 5 3 2 1 -0 2 5 2 1 2 3 -1 1 2 1
0 -0 2 -1 3 0 3 -5 1 -6 4 5 2 1 2 6 4 5 3 1 -1 -1 -1 -0 3 3 -0 4 5 6 3 0 -1 1 0 2 -1 -2 -2 -1 -3 0 -2
-5 -2 -2 -4 -2 -2 -1 -1 0 3 -3 4 3 -2 -4 4 2 1 1 4 2 0 -0 3 3 -0 -5 -5 -4 -4 -1 -2 -1 -4 -2 -2 -3 -1 -0 -0 -1 -2 -2
Height
3061 3062 3065 3069 3072 3076 3079 3083 3087 3091 3093 3097 3102 3106 3109 3113 3118 3120 3125 3129 3132 3136 3138 3141 3143 3145 3147 3150 3153 3156 3158 3160 3163 3165 3167 3169 3171 3173 3174 3176 3178 3179 3181
3050 3052 3056 3060 3064 3069 3073 3077 3081 3085 3089 3093 3098 3101 3106 3110 3112 3115 3117 3124 3126 3130 3133 3136 3139 3141 3143 3145 3149 3152 3154 3157 3159 3161 3163 3165 3168 3169 3171 3173 3174 3176 3178
3042 3045 3049 3053 3057 3062 3066 3071 3076 3080 3084 3089 3092 3095 3098 3101 3105 3108 3113 3117 3121 3125 3128 3131 3134 3136 3138 3141 3144 3148 3151 3153 3155 3157 3159 3160 3163 3166 3168 3169 3171 3173 3175
3035 3039 3043 3047 3051 3056 3060 3064 3069 3074 3078 3082 3085 3088 3092 3096 3100 3105 3109 3113 3114 3119 3123 3126 3129 3131 3133 3136 3139 3142 3146 3148 3150 3152 3154 3157 3160 3160 3164 3165 3167 3169 3170
3027 3032 3036 3041 3045 3051 3055 3059 3064 3068 3072 3075 3079 3082 3085 3089 3094 3098 3102 3106 3109 3113 3116 3119 3123 3126 3129 3132 3134 3136 3140 3143 3145 3148 3150 3152 3155 3157 3159 3161 3164 3165 3166
3019 3023 3028 3033 3038 3044 3049 3054 3058 3062 3066 3069 3072 3076 3079 3083 3086 3091 3094 3098 3102 3106 3110 3113 3116 3120 3123 3126 3129 3131 3133 3137 3140 3142 3144 3147 3150 3153 3155 3157 3158 3160 3162
3011 3014 3019 3024 3030 3036 3041 3046 3051 3056 3060 3063 3066 3069 3072 3076 3079 3084 3089 3093 3095 3098 3102 3106 3110 3114 3117 3122 3123 3126 3128 3131 3135 3137 3139 3142 3144 3147 3148 3150 3152 3153 3155
3002 3006 3010 3015 3021 3027 3033 3038 3043 3048 3053 3056 3060 3064 3067 3070 3074 3078 3082 3086 3089 3093 3097 3101 3104 3108 3111 3113 3117 3119 3122 3124 3128 3131 3133 3135 3138 3140 3142 3144 3147 3147 3148
2997 3000 3005 3009 3014 3019 3024 3030 3035 3040 3045 3050 3054 3057 3060 3064 3068 3071 3075 3079 3083 3087 3091 3094 3098 3100 3104 3106 3109 3111 3115 3118 3121 3124 3126 3129 3131 3133 3135 3137 3140 3141 3142
2992 2995 2999 3003 3007 3012 3017 3022 3026 3031 3036 3042 3046 3050 3053 3057 3061 3064 3067 3071 3077 3080 3083 3087 3090 3092 3096 3099 3101 3103 3105 3109 3112 3116 3119 3122 3124 3126 3128 3130 3132 3135 3136
2987 2990 2994 2998 3002 3006 3010 3014 3019 3023 3027 3034 3038 3042 3046 3049 3053 3056 3061 3065 3069 3072 3076 3079 3082 3084 3088 3090 3092 3093 3095 3100 3105 3106 3111 3114 3117 3119 3121 3123 3124 3127 3129
2983 2986 2989 2993 2996 3000 3004 3007 3011 3016 3021 3024 3030 3034 3037 3042 3046 3051 3055 3058 3062 3065 3068 3071 3073 3076 3079 3081 3083 3085 3087 3090 3096 3098 3102 3106 3108 3110 3113 3115 3118 3120 3123
2980 2982 2985 2988 2992 2995 2999 3003 3007 3011 3015 3020 3024 3028 3032 3036 3040 3045 3049 3052 3055 3057 3059 3061 3064 3066 3068 3070 3073 3077 3079 3082 3085 3090 3092 3099 3100 3102 3104 3107 3110 3114 3115
2976 2979 2982 2985 2988 2992 2994 2998 3002 3006 3010 3014 3019 3023 3027 3030 3033 3038 3041 3044 3047 3048 3048 3050 3052 3056 3058 3063 3065 3067 3070 3073 3075 3078 3080 3087 3091 3094 3096 3098 3102 3105 3106
2973 2975 2979 2982 2985 2988 2991 2994 2997 3001 3005 3009 3012 3016 3022 3023 3027 3031 3034 3036 3039 3040 3041 3042 3045 3047 3050 3053 3056 3058 3060 3063 3064 3067 3070 3077 3082 3085 3088 3089 3092 3096 3097
2971 2973 2975 2978 2980 2983 2987 2990 2992 2996 2998 3001 3006 3010 3013 3017 3021 3025 3028 3031 3032 3033 3034 3035 3036 3039 3042 3046 3047 3049 3051 3052 3055 3057 3061 3068 3072 3075 3079 3082 3084 3087 3088
2970 2971 2973 2975 2977 2979 2981 2985 2988 2992 2995 2996 2999 3003 3009 3012 3015 3019 3023 3026 3028 3028 3029 3029 3030 3032 3035 3039 3041 3042 3043 3044 3047 3050 3050 3059 3065 3069 3073 3075 3076 3079 3081
2970 2971 2972 2973 2974 2975 2977 2980 2983 2986 2989 2993 2995 2998 3002 3005 3009 3013 3017 3020 3023 3024 3026 3027 3028 3029 3031 3033 3036 3037 3039 3040 3040 3043 3045 3049 3056 3060 3064 3066 3068 3071 3072
2969 2969 2970 2971 2972 2972 2973 2975 2978 2982 2985 2987 2990 2994 2997 3000 3004 3008 3011 3014 3017 3019 3022 3023 3026 3028 3029 3030 3032 3033 3035 3036 3038 3039 3042 3046 3048 3053 3055 3055 3056 3060 3062
2968 2968 2969 2970 2971 2971 2971 2972 2973 2976 2979 2982 2986 2990 2993 2996 2998 3001 3005 3008 3012 3014 3017 3019 3022 3024 3026 3027 3029 3030 3032 3035 3035 3038 3039 3042 3043 3045 3047 3049 3051 3053 3054
2969 2968 2967 2968 2969 2969 2970 2970 2971 2973 2975 2976 2980 2984 2988 2993 2994 2996 2999 3004 3008 3009 3012 3014 3017 3019 3022 3025 3026 3028 3030 3031 3033 3035 3035 3038 3040 3042 3044 3045 3046 3048 3048
2969 2968 2968 2967 2967 2968 2968 2969 2969 2970 2971 2973 2975 2978 2981 2985 2989 2992 2995 2998 3003 3004 3007 3010 3013 3014 3017 3021 3022 3025 3026 3027 3027 3029 3031 3033 3034 3035 3036 3038 3039 3040 3042
2968 2967 2967 2966 2966 2966 2966 2968 2969 2968 2969 2971 2973 2974 2977 2979 2982 2985 2988 2992 2995 2998 3001 3003 3007 3009 3012 3015 3017 3019 3021 3022 3023 3024 3025 3026 3027 3028 3030 3031 3033 3033 3035
2967 2967 2966 2966 2966 2966 2966 2967 2968 2967 2968 2969 2970 2971 2973 2976 2979 2981 2984 2986 2989 2993 2996 2999 3001 3005 3008 3010 3012 3014 3015 3017 3019 3020 3021 3022 3023 3024 3024 3025 3027 3027 3027
2966 2965 2965 2965 2965 2965 2965 2966 2967 2968 2966 2966 2966 2968 2970 2971 2973 2976 2979 2982 2985 2989 2992 2995 2997 2999 3002 3004 3006 3009 3011 3012 3014 3016 3016 3017 3018 3018 3019 3020 3021 3020 3021
2965 2965 2965 2965 2964 2964 2963 2965 2965 2966 2964 2964 2964 2965 2968 2969 2970 2971 2973 2976 2979 2982 2985 2988 2991 2993 2995 2997 2999 3001 3003 3005 3007 3009 3009 3010 3011 3012 3012 3012 3013 3012 3013